Time,TemperatureF,DewpointF,PressureIn,WindDirection,WindDirectionDegrees,WindSpeedMPH,WindSpeedGustMPH,Humidity,HourlyPrecipIn,Conditions,Clouds,dailyrainin,SoftwareType,DateUTC
2013-03-19 00:03:00,9.6,-0.4,29.51,South,180,0.0,0.0,63,0.00,,,0.00,WUHU216HW,2013-03-19 08:03:00,
2013-03-19 00:08:00,9.1,-1.0,29.51,South,180,0.0,0.0,63,0.00,,,0.00,WUHU216HW,2013-03-19 08:08:00,
2013-03-19 00:13:00,9.1,-1.0,29.51,South,180,0.0,0.0,63,0.00,,,0.00,WUHU216HW,2013-03-19 08:13:00,
2013-03-19 00:18:00,8.6,-1.5,29.51,South,180,0.0,0.0,63,0.00,,,0.00,WUHU216HW,2013-03-19 08:18:00,
2013-03-19 00:23:00,8.4,-1.7,29.51,South,180,0.0,0.0,63,0.00,,,0.00,WUHU216HW,2013-03-19 08:23:00,
2013-03-19 00:28:00,8.2,-1.8,29.51,South,180,0.0,0.0,63,0.00,,,0.00,WUHU216HW,2013-03-19 08:28:00,
2013-03-19 00:33:00,7.8,-2.2,29.51,South,180,0.0,0.0,63,0.00,,,0.00,WUHU216HW,2013-03-19 08:33:00,
2013-03-19 00:38:00,7.8,-1.8,29.51,South,180,0.0,0.0,64,0.00,,,0.00,WUHU216HW,2013-03-19 08:38:00,
2013-03-19 00:43:00,7.7,-2.0,29.51,South,180,0.0,0.0,64,0.00,,,0.00,WUHU216HW,2013-03-19 08:43:00,
2013-03-19 00:48:00,7.5,-1.8,29.51,South,180,0.0,0.0,65,0.00,,,0.00,WUHU216HW,2013-03-19 08:48:00,
2013-03-19 00:53:00,7.5,-1.8,29.52,South,180,0.0,0.0,65,0.00,,,0.00,WUHU216HW,2013-03-19 08:53:00,
2013-03-19 00:58:00,7.3,-2.0,29.51,South,180,0.0,0.0,65,0.00,,,0.00,WUHU216HW,2013-03-19 08:58:00,
2013-03-19 01:03:00,6.9,-2.3,29.51,South,180,0.0,0.0,65,0.00,,,0.00,WUHU216HW,2013-03-19 09:03:00,
2013-03-19 01:08:00,6.6,-2.7,29.51,South,180,0.0,0.0,65,0.00,,,0.00,WUHU216HW,2013-03-19 09:08:00,
2013-03-19 01:13:00,6.6,-2.7,29.51,South,180,0.0,0.0,65,0.00,,,0.00,WUHU216HW,2013-03-19 09:13:00,
2013-03-19 01:18:00,6.4,-2.9,29.51,South,180,0.0,0.0,65,0.00,,,0.00,WUHU216HW,2013-03-19 09:18:00,
2013-03-19 01:23:00,6.0,-2.9,29.52,South,180,0.0,0.0,66,0.00,,,0.00,WUHU216HW,2013-03-19 09:23:00,
2013-03-19 01:28:00,6.0,-2.9,29.51,South,180,0.0,0.0,66,0.00,,,0.00,WUHU216HW,2013-03-19 09:28:00,
2013-03-19 01:33:00,5.9,-3.1,29.51,South,180,0.0,0.0,66,0.00,,,0.00,WUHU216HW,2013-03-19 09:33:00,
2013-03-19 01:38:00,5.7,-3.3,29.51,South,180,0.0,0.0,66,0.00,,,0.00,WUHU216HW,2013-03-19 09:38:00,
2013-03-19 01:43:00,5.7,-3.3,29.51,South,180,0.0,0.0,66,0.00,,,0.00,WUHU216HW,2013-03-19 09:43:00,
2013-03-19 01:48:00,5.5,-3.4,29.51,South,180,0.0,0.0,66,0.00,,,0.00,WUHU216HW,2013-03-19 09:48:00,
2013-03-19 01:53:00,5.3,-3.6,29.51,South,180,0.0,0.0,66,0.00,,,0.00,WUHU216HW,2013-03-19 09:53:00,
2013-03-19 01:58:00,5.1,-3.8,29.51,South,180,0.0,0.0,66,0.00,,,0.00,WUHU216HW,2013-03-19 09:58:00,
2013-03-19 02:03:00,4.8,-4.1,29.51,South,180,0.0,0.0,66,0.00,,,0.00,WUHU216HW,2013-03-19 10:03:00,
2013-03-19 02:08:00,4.8,-3.8,29.51,South,180,0.0,0.0,67,0.00,,,0.00,WUHU216HW,2013-03-19 10:08:00,
2013-03-19 02:13:00,4.6,-4.0,29.51,South,180,0.0,0.0,67,0.00,,,0.00,WUHU216HW,2013-03-19 10:13:00,
2013-03-19 02:18:00,4.6,-4.0,29.51,South,180,0.0,0.0,67,0.00,,,0.00,WUHU216HW,2013-03-19 10:18:00,
2013-03-19 02:23:00,4.4,-4.1,29.51,South,180,0.0,0.0,67,0.00,,,0.00,WUHU216HW,2013-03-19 10:23:00,
2013-03-19 02:28:00,4.2,-4.3,29.51,South,180,0.0,0.0,67,0.00,,,0.00,WUHU216HW,2013-03-19 10:28:00,
2013-03-19 02:33:00,4.2,-4.0,29.52,South,180,0.0,0.0,68,0.00,,,0.00,WUHU216HW,2013-03-19 10:33:00,
2013-03-19 02:38:00,4.2,-4.0,29.52,South,180,0.0,0.0,68,0.00,,,0.00,WUHU216HW,2013-03-19 10:38:00,
2013-03-19 02:43:00,4.1,-4.1,29.52,South,180,0.0,0.0,68,0.00,,,0.00,WUHU216HW,2013-03-19 10:43:00,
2013-03-19 02:48:00,3.9,-4.3,29.52,South,180,0.0,0.0,68,0.00,,,0.00,WUHU216HW,2013-03-19 10:48:00,
2013-03-19 02:53:00,3.9,-4.3,29.51,South,180,0.0,0.0,68,0.00,,,0.00,WUHU216HW,2013-03-19 10:53:00,
2013-03-19 02:58:00,3.7,-4.5,29.51,South,180,0.0,0.0,68,0.00,,,0.00,WUHU216HW,2013-03-19 10:58:00,
2013-03-19 03:03:00,3.3,-4.8,29.51,South,180,0.0,0.0,68,0.00,,,0.00,WUHU216HW,2013-03-19 11:03:00,
2013-03-19 03:08:00,3.3,-4.8,29.52,South,180,0.0,0.0,68,0.00,,,0.00,WUHU216HW,2013-03-19 11:08:00,
2013-03-19 03:13:00,3.0,-5.1,29.52,South,180,0.0,0.0,68,0.00,,,0.00,WUHU216HW,2013-03-19 11:13:00,
2013-03-19 03:18:00,2.8,-5.3,29.52,South,180,0.0,0.0,68,0.00,,,0.00,WUHU216HW,2013-03-19 11:18:00,
2013-03-19 03:23:00,2.8,-5.3,29.52,South,180,0.0,0.0,68,0.00,,,0.00,WUHU216HW,2013-03-19 11:23:00,
2013-03-19 03:28:00,2.4,-5.4,29.52,South,180,0.0,0.0,69,0.00,,,0.00,WUHU216HW,2013-03-19 11:28:00,
2013-03-19 03:34:00,2.3,-5.5,29.52,South,180,0.0,0.0,69,0.00,,,0.00,WUHU216HW,2013-03-19 11:34:00,
2013-03-19 03:38:00,2.1,-5.7,29.52,South,180,0.0,0.0,69,0.00,,,0.00,WUHU216HW,2013-03-19 11:38:00,
2013-03-19 03:43:00,1.9,-5.9,29.52,South,180,0.0,0.0,69,0.00,,,0.00,WUHU216HW,2013-03-19 11:43:00,
2013-03-19 03:48:00,1.9,-5.9,29.52,South,180,0.0,0.0,69,0.00,,,0.00,WUHU216HW,2013-03-19 11:48:00,
2013-03-19 03:54:00,1.5,-6.3,29.52,South,180,0.0,0.0,69,0.00,,,0.00,WUHU216HW,2013-03-19 11:54:00,
2013-03-19 03:59:00,1.4,-6.4,29.52,South,180,0.0,0.0,69,0.00,,,0.00,WUHU216HW,2013-03-19 11:59:00,
2013-03-19 04:04:00,1.0,-6.8,29.52,South,180,0.0,0.0,69,0.00,,,0.00,WUHU216HW,2013-03-19 12:04:00,
2013-03-19 04:09:00,1.0,-6.8,29.52,South,180,0.0,0.0,69,0.00,,,0.00,WUHU216HW,2013-03-19 12:09:00,
2013-03-19 04:14:00,0.6,-7.2,29.52,South,180,0.0,0.0,69,0.00,,,0.00,WUHU216HW,2013-03-19 12:14:00,
2013-03-19 04:19:00,0.5,-7.3,29.52,South,180,0.0,0.0,69,0.00,,,0.00,WUHU216HW,2013-03-19 12:19:00,
2013-03-19 04:24:00,0.3,-7.5,29.52,South,180,0.0,0.0,69,0.00,,,0.00,WUHU216HW,2013-03-19 12:24:00,
2013-03-19 04:29:00,0.1,-7.4,29.53,South,180,0.0,0.0,70,0.00,,,0.00,WUHU216HW,2013-03-19 12:29:00,
2013-03-19 04:34:00,0.1,-7.4,29.53,South,180,0.0,0.0,70,0.00,,,0.00,WUHU216HW,2013-03-19 12:34:00,
2013-03-19 04:39:00,0.1,-7.4,29.53,South,180,0.0,0.0,70,0.00,,,0.00,WUHU216HW,2013-03-19 12:39:00,
2013-03-19 04:44:00,0.1,-7.4,29.53,South,180,0.0,0.0,70,0.00,,,0.00,WUHU216HW,2013-03-19 12:44:00,
2013-03-19 04:49:00,0.0,-7.6,29.53,South,180,0.0,0.0,70,0.00,,,0.00,WUHU216HW,2013-03-19 12:49:00,
2013-03-19 04:54:00,-0.2,-7.7,29.53,South,180,0.0,0.0,70,0.00,,,0.00,WUHU216HW,2013-03-19 12:54:00,
2013-03-19 04:59:00,-0.4,-7.9,29.52,South,180,0.0,0.0,70,0.00,,,0.00,WUHU216HW,2013-03-19 12:59:00,
2013-03-19 05:04:00,-0.7,-8.2,29.52,South,180,0.0,0.0,70,0.00,,,0.00,WUHU216HW,2013-03-19 13:04:00,
2013-03-19 05:09:00,-0.7,-8.2,29.52,South,180,0.0,0.0,70,0.00,,,0.00,WUHU216HW,2013-03-19 13:09:00,
2013-03-19 05:14:00,-1.1,-8.6,29.52,South,180,0.0,0.0,70,0.00,,,0.00,WUHU216HW,2013-03-19 13:14:00,
2013-03-19 05:19:00,-1.1,-8.6,29.53,South,180,0.0,0.0,70,0.00,,,0.00,WUHU216HW,2013-03-19 13:19:00,
2013-03-19 05:24:00,-1.1,-8.6,29.53,South,180,0.0,0.0,70,0.00,,,0.00,WUHU216HW,2013-03-19 13:24:00,
2013-03-19 05:29:00,-1.1,-8.6,29.53,South,180,0.0,0.0,70,0.00,,,0.00,WUHU216HW,2013-03-19 13:29:00,
2013-03-19 05:34:00,-1.1,-8.6,29.53,South,180,0.0,0.0,70,0.00,,,0.00,WUHU216HW,2013-03-19 13:34:00,
2013-03-19 05:39:00,-1.3,-8.7,29.53,South,180,0.0,0.0,70,0.00,,,0.00,WUHU216HW,2013-03-19 13:39:00,
2013-03-19 05:44:00,-1.4,-8.9,29.53,South,180,0.0,0.0,70,0.00,,,0.00,WUHU216HW,2013-03-19 13:44:00,
2013-03-19 05:49:00,-1.6,-9.0,29.53,South,180,0.0,0.0,70,0.00,,,0.00,WUHU216HW,2013-03-19 13:49:00,
2013-03-19 05:54:00,-1.6,-9.0,29.52,South,180,0.0,0.0,70,0.00,,,0.00,WUHU216HW,2013-03-19 13:54:00,
2013-03-19 05:59:00,-1.8,-9.2,29.52,South,180,0.0,0.0,70,0.00,,,0.00,WUHU216HW,2013-03-19 13:59:00,
2013-03-19 06:04:00,-1.8,-9.2,29.52,South,180,0.0,0.0,70,0.00,,,0.00,WUHU216HW,2013-03-19 14:04:00,
2013-03-19 06:09:00,-1.8,-9.2,29.53,South,180,0.0,0.0,70,0.00,,,0.00,WUHU216HW,2013-03-19 14:09:00,
2013-03-19 06:14:00,-1.8,-8.9,29.53,South,180,0.0,0.0,71,0.00,,,0.00,WUHU216HW,2013-03-19 14:14:00,
2013-03-19 06:19:00,-2.0,-9.1,29.53,South,180,0.0,0.0,71,0.00,,,0.00,WUHU216HW,2013-03-19 14:19:00,
2013-03-19 06:24:00,-2.0,-9.1,29.53,South,180,0.0,0.0,71,0.00,,,0.00,WUHU216HW,2013-03-19 14:24:00,
2013-03-19 06:29:00,-2.0,-9.1,29.53,South,180,0.0,0.0,71,0.00,,,0.00,WUHU216HW,2013-03-19 14:29:00,
2013-03-19 06:34:00,-2.0,-9.1,29.53,South,180,0.0,0.0,71,0.00,,,0.00,WUHU216HW,2013-03-19 14:34:00,
2013-03-19 06:39:00,-2.0,-9.1,29.53,South,180,0.0,0.0,71,0.00,,,0.00,WUHU216HW,2013-03-19 14:39:00,
2013-03-19 06:44:00,-2.0,-9.1,29.53,South,180,0.0,0.0,71,0.00,,,0.00,WUHU216HW,2013-03-19 14:44:00,
2013-03-19 06:49:00,-2.2,-9.3,29.53,South,180,0.0,0.0,71,0.00,,,0.00,WUHU216HW,2013-03-19 14:49:00,
2013-03-19 06:54:00,-2.5,-9.6,29.54,South,180,0.0,0.0,71,0.00,,,0.00,WUHU216HW,2013-03-19 14:54:00,
2013-03-19 06:59:00,-2.7,-9.8,29.54,South,180,0.0,0.0,71,0.00,,,0.00,WUHU216HW,2013-03-19 14:59:00,
2013-03-19 07:04:00,-3.1,-10.2,29.54,South,180,0.0,0.0,71,0.00,,,0.00,WUHU216HW,2013-03-19 15:04:00,
2013-03-19 07:09:00,-3.2,-10.3,29.54,South,180,0.0,0.0,71,0.00,,,0.00,WUHU216HW,2013-03-19 15:09:00,
2013-03-19 07:14:00,-3.2,-10.3,29.54,South,180,0.0,0.0,71,0.00,,,0.00,WUHU216HW,2013-03-19 15:14:00,
2013-03-19 07:19:00,-3.2,-10.3,29.54,South,180,0.0,0.0,71,0.00,,,0.00,WUHU216HW,2013-03-19 15:19:00,
2013-03-19 07:24:00,-3.2,-10.3,29.54,South,180,0.0,0.0,71,0.00,,,0.00,WUHU216HW,2013-03-19 15:24:00,
2013-03-19 07:29:00,-3.2,-10.3,29.54,South,180,0.0,0.0,71,0.00,,,0.00,WUHU216HW,2013-03-19 15:29:00,
2013-03-19 07:34:00,-3.2,-10.1,29.54,South,180,0.0,0.0,72,0.00,,,0.00,WUHU216HW,2013-03-19 15:34:00,
2013-03-19 07:39:00,-3.4,-10.5,29.54,South,180,0.0,0.0,71,0.00,,,0.00,WUHU216HW,2013-03-19 15:39:00,
2013-03-19 07:44:00,-3.8,-10.9,29.54,South,180,0.0,0.0,71,0.00,,,0.00,WUHU216HW,2013-03-19 15:44:00,
2013-03-19 07:49:00,-3.8,-10.9,29.54,South,180,0.0,0.0,71,0.00,,,0.00,WUHU216HW,2013-03-19 15:49:00,
2013-03-19 07:54:00,-4.1,-11.2,29.55,South,180,0.0,0.0,71,0.00,,,0.00,WUHU216HW,2013-03-19 15:54:00,
2013-03-19 07:59:00,-4.1,-11.2,29.55,South,180,0.0,0.0,71,0.00,,,0.00,WUHU216HW,2013-03-19 15:59:00,
2013-03-19 08:04:00,-4.1,-11.2,29.54,South,180,0.0,0.0,71,0.00,,,0.00,WUHU216HW,2013-03-19 16:04:00,
2013-03-19 08:09:00,-4.1,-11.0,29.55,South,180,0.0,0.0,72,0.00,,,0.00,WUHU216HW,2013-03-19 16:09:00,
2013-03-19 08:14:00,-4.3,-11.4,29.55,South,180,0.0,0.0,71,0.00,,,0.00,WUHU216HW,2013-03-19 16:14:00,
2013-03-19 08:19:00,-4.3,-11.4,29.55,South,180,0.0,0.0,71,0.00,,,0.00,WUHU216HW,2013-03-19 16:19:00,
2013-03-19 08:24:00,-4.3,-11.2,29.55,South,180,0.0,0.0,72,0.00,,,0.00,WUHU216HW,2013-03-19 16:24:00,
2013-03-19 08:29:00,-4.1,-11.0,29.55,South,180,0.0,0.0,72,0.00,,,0.00,WUHU216HW,2013-03-19 16:29:00,
2013-03-19 08:34:00,-4.1,-11.0,29.55,South,180,0.0,0.0,72,0.00,,,0.00,WUHU216HW,2013-03-19 16:34:00,
2013-03-19 08:39:00,-4.1,-11.0,29.55,South,180,0.0,0.0,72,0.00,,,0.00,WUHU216HW,2013-03-19 16:39:00,
2013-03-19 08:44:00,-4.3,-11.2,29.55,South,180,0.0,0.0,72,0.00,,,0.00,WUHU216HW,2013-03-19 16:44:00,
2013-03-19 08:49:00,-4.1,-11.0,29.56,South,180,0.0,0.0,72,0.00,,,0.00,WUHU216HW,2013-03-19 16:49:00,
2013-03-19 08:54:00,-4.1,-11.0,29.56,South,180,0.0,0.0,72,0.00,,,0.00,WUHU216HW,2013-03-19 16:54:00,
2013-03-19 08:59:00,-3.8,-10.6,29.55,South,180,0.0,0.0,72,0.00,,,0.00,WUHU216HW,2013-03-19 16:59:00,
2013-03-19 09:04:00,-3.8,-10.6,29.55,South,180,0.0,0.0,72,0.00,,,0.00,WUHU216HW,2013-03-19 17:04:00,
2013-03-19 09:09:00,-3.2,-10.1,29.56,South,180,0.0,0.0,72,0.00,,,0.00,WUHU216HW,2013-03-19 17:09:00,
2013-03-19 09:14:00,-3.1,-9.9,29.56,South,180,0.0,0.0,72,0.00,,,0.00,WUHU216HW,2013-03-19 17:14:00,
2013-03-19 09:19:00,-2.7,-9.5,29.55,South,180,0.0,0.0,72,0.00,,,0.00,WUHU216HW,2013-03-19 17:19:00,
2013-03-19 09:25:00,-2.3,-8.9,29.56,South,180,0.0,0.0,73,0.00,,,0.00,WUHU216HW,2013-03-19 17:25:00,
2013-03-19 09:30:00,-2.0,-8.6,29.55,South,180,0.0,0.0,73,0.00,,,0.00,WUHU216HW,2013-03-19 17:30:00,
2013-03-19 09:35:00,-1.6,-8.2,29.55,South,180,0.0,0.0,73,0.00,,,0.00,WUHU216HW,2013-03-19 17:35:00,
2013-03-19 09:39:00,-0.7,-7.4,29.56,South,180,0.0,0.0,74,0.00,,,0.00,WUHU216HW,2013-03-19 17:39:00,
2013-03-19 09:45:00,0.6,-5.7,29.56,South,180,0.0,0.0,74,0.00,,,0.00,WUHU216HW,2013-03-19 17:45:00,
2013-03-19 09:50:00,1.7,-4.4,29.56,South,180,0.0,0.0,75,0.00,,,0.00,WUHU216HW,2013-03-19 17:50:00,
2013-03-19 09:55:00,2.4,-4.0,29.56,South,180,0.0,0.0,74,0.00,,,0.00,WUHU216HW,2013-03-19 17:55:00,
2013-03-19 10:00:00,3.3,-2.8,29.55,South,180,0.0,0.0,75,0.00,,,0.00,WUHU216HW,2013-03-19 18:00:00,
2013-03-19 10:05:00,6.0,0.3,29.56,South,180,0.0,0.0,77,0.00,,,0.00,WUHU216HW,2013-03-19 18:05:00,
2013-03-19 10:10:00,10.0,4.1,29.55,South,180,0.0,0.0,77,0.00,,,0.00,WUHU216HW,2013-03-19 18:10:00,
2013-03-19 10:15:00,14.3,8.1,29.55,South,180,0.0,0.0,76,0.00,,,0.00,WUHU216HW,2013-03-19 18:15:00,
2013-03-19 10:20:00,15.6,7.8,29.55,South,180,0.0,0.0,71,0.00,,,0.00,WUHU216HW,2013-03-19 18:20:00,
2013-03-19 10:25:00,14.7,6.0,29.55,South,180,0.0,0.0,68,0.00,,,0.00,WUHU216HW,2013-03-19 18:25:00,
2013-03-19 10:30:00,14.1,5.2,29.55,South,180,0.0,0.0,67,0.00,,,0.00,WUHU216HW,2013-03-19 18:30:00,
2013-03-19 10:35:00,13.4,4.5,29.55,South,180,0.0,0.0,67,0.00,,,0.00,WUHU216HW,2013-03-19 18:35:00,
2013-03-19 10:40:00,12.7,3.7,29.55,South,180,0.0,0.0,67,0.00,,,0.00,WUHU216HW,2013-03-19 18:40:00,
2013-03-19 10:45:00,12.5,3.6,29.55,South,180,0.0,0.0,67,0.00,,,0.00,WUHU216HW,2013-03-19 18:45:00,
2013-03-19 10:50:00,12.7,3.7,29.55,South,180,0.0,0.0,67,0.00,,,0.00,WUHU216HW,2013-03-19 18:50:00,
2013-03-19 10:55:00,13.6,5.7,29.54,South,180,0.0,0.0,70,0.00,,,0.00,WUHU216HW,2013-03-19 18:55:00,
2013-03-19 11:00:00,14.9,7.1,29.54,South,180,0.0,0.0,71,0.00,,,0.00,WUHU216HW,2013-03-19 19:00:00,
2013-03-19 11:05:00,16.5,8.4,29.54,South,180,0.0,0.0,70,0.00,,,0.00,WUHU216HW,2013-03-19 19:05:00,
2013-03-19 11:10:00,17.4,9.3,29.54,South,180,0.0,0.0,70,0.00,,,0.00,WUHU216HW,2013-03-19 19:10:00,
2013-03-19 11:15:00,18.3,9.4,29.54,South,180,0.0,0.0,68,0.00,,,0.00,WUHU216HW,2013-03-19 19:15:00,
2013-03-19 11:20:00,19.5,9.9,29.54,NE,45,0.0,0.0,66,0.00,,,0.00,WUHU216HW,2013-03-19 19:20:00,
2013-03-19 11:25:00,21.3,11.3,29.54,NE,45,0.0,0.0,65,0.00,,,0.00,WUHU216HW,2013-03-19 19:25:00,
2013-03-19 11:30:00,22.4,11.6,29.54,NE,45,0.0,0.0,63,0.00,,,0.00,WUHU216HW,2013-03-19 19:30:00,
2013-03-19 11:35:00,23.9,12.3,29.54,NE,45,0.0,0.0,61,0.00,,,0.00,WUHU216HW,2013-03-19 19:35:00,
2013-03-19 11:40:00,25.1,13.2,29.53,ENE,68,0.0,0.0,60,0.00,,,0.00,WUHU216HW,2013-03-19 19:40:00,
2013-03-19 11:45:00,26.4,13.5,29.53,ENE,68,0.0,0.0,58,0.00,,,0.00,WUHU216HW,2013-03-19 19:45:00,
2013-03-19 11:50:00,27.6,13.9,29.52,NE,45,0.0,0.0,56,0.00,,,0.00,WUHU216HW,2013-03-19 19:50:00,
2013-03-19 11:55:00,27.6,13.1,29.52,ENE,68,0.0,0.0,54,0.00,,,0.00,WUHU216HW,2013-03-19 19:55:00,
2013-03-19 12:01:00,28.5,14.0,29.52,WNW,293,0.0,0.0,54,0.00,,,0.00,WUHU216HW,2013-03-19 20:01:00,
2013-03-19 12:06:00,30.0,14.4,29.52,NE,45,0.0,0.0,52,0.00,,,0.00,WUHU216HW,2013-03-19 20:06:00,
2013-03-19 12:11:00,30.3,14.3,29.52,NW,315,0.0,1.5,51,0.00,,,0.00,WUHU216HW,2013-03-19 20:11:00,
2013-03-19 12:16:00,30.7,14.3,29.52,North,0,0.0,2.6,49,0.00,,,0.00,WUHU216HW,2013-03-19 20:16:00,
2013-03-19 12:21:00,30.5,13.1,29.52,NNE,23,0.0,7.1,48,0.00,,,0.00,WUHU216HW,2013-03-19 20:21:00,
2013-03-19 12:27:00,30.7,12.7,29.52,North,0,7.8,7.8,47,0.00,,,0.00,WUHU216HW,2013-03-19 20:27:00,
2013-03-19 12:32:00,31.2,13.2,29.52,North,0,8.7,8.7,47,0.00,,,0.00,WUHU216HW,2013-03-19 20:32:00,
2013-03-19 12:37:00,32.1,13.5,29.52,NW,315,0.0,8.7,46,0.00,,,0.00,WUHU216HW,2013-03-19 20:37:00,
2013-03-19 12:42:00,31.8,11.2,29.52,NNE,23,11.6,11.6,42,0.00,,,0.00,WUHU216HW,2013-03-19 20:42:00,
2013-03-19 12:48:00,32.3,11.7,29.52,North,0,14.0,14.0,42,0.00,,,0.00,WUHU216HW,2013-03-19 20:48:00,
2013-03-19 12:53:00,33.4,13.2,29.52,North,0,13.4,14.0,43,0.00,,,0.00,WUHU216HW,2013-03-19 20:53:00,
2013-03-19 12:58:00,34.8,14.0,29.52,North,0,7.1,13.4,42,0.00,,,0.00,WUHU216HW,2013-03-19 20:58:00,
2013-03-19 13:03:00,36.5,13.8,29.52,North,0,8.9,13.4,39,0.00,,,0.00,WUHU216HW,2013-03-19 21:03:00,
2013-03-19 13:08:00,37.9,13.1,29.52,North,0,14.9,17.4,36,0.00,,,0.00,WUHU216HW,2013-03-19 21:08:00,
2013-03-19 13:13:00,38.4,14.2,29.51,NNE,23,12.5,17.4,37,0.00,,,0.00,WUHU216HW,2013-03-19 21:13:00,
2013-03-19 13:18:00,40.6,15.5,29.51,North,0,8.9,14.9,36,0.00,,,0.00,WUHU216HW,2013-03-19 21:18:00,
2013-03-19 13:23:00,41.3,14.9,29.51,North,0,13.6,14.9,34,0.00,,,0.00,WUHU216HW,2013-03-19 21:23:00,
2013-03-19 13:28:00,41.1,14.1,29.51,NNE,23,12.7,14.9,33,0.00,,,0.00,WUHU216HW,2013-03-19 21:28:00,
2013-03-19 13:33:00,41.0,13.3,29.52,North,0,6.2,13.6,32,0.00,,,0.00,WUHU216HW,2013-03-19 21:33:00,
2013-03-19 13:38:00,41.3,14.2,29.51,WNW,293,4.9,12.7,33,0.00,,,0.00,WUHU216HW,2013-03-19 21:38:00,
2013-03-19 13:43:00,42.4,15.1,29.51,North,0,15.6,15.6,33,0.00,,,0.00,WUHU216HW,2013-03-19 21:43:00,
2013-03-19 13:48:00,42.9,14.2,29.52,North,0,10.5,15.6,31,0.00,,,0.00,WUHU216HW,2013-03-19 21:48:00,
2013-03-19 13:53:00,42.4,13.8,29.51,North,0,19.9,19.9,31,0.00,,,0.00,WUHU216HW,2013-03-19 21:53:00,
2013-03-19 13:58:00,41.7,13.2,29.52,NNW,338,12.0,19.9,31,0.00,,,0.00,WUHU216HW,2013-03-19 21:58:00,
2013-03-19 14:03:00,41.7,12.5,29.51,NNE,23,5.5,12.0,30,0.00,,,0.00,WUHU216HW,2013-03-19 22:03:00,
2013-03-19 14:08:00,41.7,12.5,29.51,North,0,15.8,15.8,30,0.00,,,0.00,WUHU216HW,2013-03-19 22:08:00,
2013-03-19 14:13:00,42.4,13.8,29.51,North,0,18.1,18.1,31,0.00,,,0.00,WUHU216HW,2013-03-19 22:13:00,
2013-03-19 14:18:00,42.6,13.3,29.51,NNW,338,9.3,18.1,30,0.00,,,0.00,WUHU216HW,2013-03-19 22:18:00,
2013-03-19 14:24:00,43.3,14.6,29.52,West,270,6.0,18.1,31,0.00,,,0.00,WUHU216HW,2013-03-19 22:24:00,
2013-03-19 14:29:00,44.4,14.9,29.51,North,0,7.1,9.3,30,0.00,,,0.00,WUHU216HW,2013-03-19 22:29:00,
2013-03-19 14:34:00,44.9,14.4,29.51,North,0,4.6,7.3,29,0.00,,,0.00,WUHU216HW,2013-03-19 22:34:00,
2013-03-19 14:39:00,43.5,11.4,29.51,WNW,293,10.5,16.3,27,0.00,,,0.00,WUHU216HW,2013-03-19 22:39:00,
2013-03-19 14:44:00,43.1,11.0,29.51,West,270,3.5,16.3,27,0.00,,,0.00,WUHU216HW,2013-03-19 22:44:00,
2013-03-19 14:49:00,42.6,10.6,29.51,West,270,2.6,10.5,27,0.00,,,0.00,WUHU216HW,2013-03-19 22:49:00,
2013-03-19 14:54:00,41.9,10.9,29.51,SSW,203,1.1,9.1,28,0.00,,,0.00,WUHU216HW,2013-03-19 22:54:00,
2013-03-19 14:59:00,42.0,11.0,29.51,WSW,248,7.3,14.9,28,0.00,,,0.00,WUHU216HW,2013-03-19 22:59:00,
2013-03-19 15:04:00,42.0,10.1,29.51,NNE,23,6.9,14.9,27,0.00,,,0.00,WUHU216HW,2013-03-19 23:04:00,
2013-03-19 15:09:00,42.4,11.3,29.51,NNE,23,5.8,11.8,28,0.00,,,0.00,WUHU216HW,2013-03-19 23:09:00,
2013-03-19 15:14:00,40.8,9.1,29.50,NNE,23,5.5,9.3,27,0.00,,,0.00,WUHU216HW,2013-03-19 23:14:00,
2013-03-19 15:19:00,37.5,7.1,29.50,North,0,12.7,12.7,28,0.00,,,0.00,WUHU216HW,2013-03-19 23:19:00,
2013-03-19 15:24:00,34.3,6.1,29.50,WNW,293,2.4,12.7,30,0.00,,,0.00,WUHU216HW,2013-03-19 23:24:00,
2013-03-19 15:29:00,32.7,4.7,29.50,NNE,23,7.1,9.1,30,0.00,,,0.00,WUHU216HW,2013-03-19 23:29:00,
2013-03-19 15:35:00,31.2,4.0,29.50,NNE,23,14.3,21.4,31,0.00,,,0.00,WUHU216HW,2013-03-19 23:35:00,
2013-03-19 15:40:00,30.2,3.7,29.51,North,0,7.1,21.4,32,0.00,,,0.00,WUHU216HW,2013-03-19 23:40:00,
2013-03-19 15:45:00,29.6,3.2,29.50,North,0,18.3,18.3,32,0.00,,,0.00,WUHU216HW,2013-03-19 23:45:00,
2013-03-19 15:50:00,29.1,3.3,29.51,WNW,293,6.9,18.3,33,0.00,,,0.00,WUHU216HW,2013-03-19 23:50:00,
2013-03-19 15:55:00,28.7,3.0,29.50,NNE,23,9.1,12.3,33,0.00,,,0.00,WUHU216HW,2013-03-19 23:55:00,
2013-03-19 16:00:00,28.2,3.2,29.50,NNE,23,14.9,14.9,34,0.00,,,0.00,WUHU216HW,2013-03-20 00:00:00,
2013-03-19 16:05:00,28.2,3.2,29.50,NW,315,2.0,17.4,34,0.00,,,0.00,WUHU216HW,2013-03-20 00:05:00,
2013-03-19 16:10:00,28.0,3.6,29.50,NE,45,5.8,17.4,35,0.00,,,0.00,WUHU216HW,2013-03-20 00:10:00,
2013-03-19 16:15:00,28.0,3.6,29.50,NNE,23,9.1,9.1,35,0.00,,,0.00,WUHU216HW,2013-03-20 00:15:00,
2013-03-19 16:20:00,27.8,3.5,29.49,NNW,338,11.4,11.4,35,0.00,,,0.00,WUHU216HW,2013-03-20 00:20:00,
2013-03-19 16:25:00,27.6,3.9,29.50,NNW,338,0.0,11.4,36,0.00,,,0.00,WUHU216HW,2013-03-20 00:25:00,
2013-03-19 16:30:00,27.6,3.9,29.50,West,270,4.6,11.4,36,0.00,,,0.00,WUHU216HW,2013-03-20 00:30:00,
2013-03-19 16:35:00,27.6,3.9,29.50,WNW,293,6.7,6.7,36,0.00,,,0.00,WUHU216HW,2013-03-20 00:35:00,
2013-03-19 16:40:00,27.6,4.6,29.49,NNE,23,6.0,6.7,37,0.00,,,0.00,WUHU216HW,2013-03-20 00:40:00,
2013-03-19 16:45:00,27.6,4.6,29.50,NNE,23,10.2,10.2,37,0.00,,,0.00,WUHU216HW,2013-03-20 00:45:00,
2013-03-19 16:50:00,27.6,4.6,29.50,NNE,23,5.8,10.2,37,0.00,,,0.00,WUHU216HW,2013-03-20 00:50:00,
2013-03-19 16:55:00,27.5,4.4,29.50,North,0,7.8,10.2,37,0.00,,,0.00,WUHU216HW,2013-03-20 00:55:00,
2013-03-19 17:00:00,27.5,4.4,29.50,West,270,2.2,8.9,37,0.00,,,0.00,WUHU216HW,2013-03-20 01:00:00,
2013-03-19 17:05:00,27.3,4.2,29.50,NNW,338,6.2,8.9,37,0.00,,,0.00,WUHU216HW,2013-03-20 01:05:00,
2013-03-19 17:10:00,27.3,4.2,29.49,NW,315,0.0,7.8,37,0.00,,,0.00,WUHU216HW,2013-03-20 01:10:00,
2013-03-19 17:15:00,27.3,4.2,29.49,North,0,0.0,8.9,37,0.00,,,0.00,WUHU216HW,2013-03-20 01:15:00,
2013-03-19 17:20:00,27.1,4.7,29.49,NW,315,7.1,8.9,38,0.00,,,0.00,WUHU216HW,2013-03-20 01:20:00,
2013-03-19 17:25:00,27.1,4.1,29.50,North,0,9.1,9.1,37,0.00,,,0.00,WUHU216HW,2013-03-20 01:25:00,
2013-03-19 17:31:00,27.1,4.7,29.49,NW,315,0.0,10.2,38,0.00,,,0.00,WUHU216HW,2013-03-20 01:31:00,
2013-03-19 17:36:00,26.9,4.6,29.50,North,0,17.4,17.4,38,0.00,,,0.00,WUHU216HW,2013-03-20 01:36:00,
2013-03-19 17:41:00,26.9,4.6,29.50,North,0,2.2,17.4,38,0.00,,,0.00,WUHU216HW,2013-03-20 01:41:00,
2013-03-19 17:46:00,26.7,4.4,29.50,NNE,23,8.2,21.0,38,0.00,,,0.00,WUHU216HW,2013-03-20 01:46:00,
2013-03-19 17:51:00,26.7,3.8,29.50,NNE,23,10.0,21.0,37,0.00,,,0.00,WUHU216HW,2013-03-20 01:51:00,
2013-03-19 17:56:00,26.6,4.2,29.50,West,270,0.0,10.2,38,0.00,,,0.00,WUHU216HW,2013-03-20 01:56:00,
2013-03-19 18:01:00,26.7,4.4,29.50,NNE,23,2.4,10.0,38,0.00,,,0.00,WUHU216HW,2013-03-20 02:01:00,
2013-03-19 18:06:00,26.7,4.4,29.50,NW,315,4.2,6.4,38,0.00,,,0.00,WUHU216HW,2013-03-20 02:06:00,
2013-03-19 18:11:00,26.6,4.2,29.50,NNW,338,15.4,18.3,38,0.00,,,0.00,WUHU216HW,2013-03-20 02:11:00,
2013-03-19 18:16:00,26.4,4.1,29.49,North,0,11.4,18.3,38,0.00,,,0.00,WUHU216HW,2013-03-20 02:16:00,
2013-03-19 18:21:00,26.4,4.1,29.50,NNE,23,6.9,15.4,38,0.00,,,0.00,WUHU216HW,2013-03-20 02:21:00,
2013-03-19 18:26:00,26.4,4.1,29.49,North,0,6.9,11.4,38,0.00,,,0.00,WUHU216HW,2013-03-20 02:26:00,
2013-03-19 18:31:00,26.2,3.9,29.49,NW,315,0.0,6.9,38,0.00,,,0.00,WUHU216HW,2013-03-20 02:31:00,
2013-03-19 18:37:00,26.0,3.7,29.50,NNW,338,7.3,9.3,38,0.00,,,0.00,WUHU216HW,2013-03-20 02:37:00,
2013-03-19 18:42:00,25.8,3.6,29.50,North,0,5.8,14.3,38,0.00,,,0.00,WUHU216HW,2013-03-20 02:42:00,
2013-03-19 18:47:00,25.8,3.6,29.50,WNW,293,3.3,14.3,38,0.00,,,0.00,WUHU216HW,2013-03-20 02:47:00,
2013-03-19 18:52:00,25.7,3.4,29.49,North,0,13.6,13.6,38,0.00,,,0.00,WUHU216HW,2013-03-20 02:52:00,
2013-03-19 18:57:00,25.5,3.9,29.50,NNE,23,8.9,15.4,39,0.00,,,0.00,WUHU216HW,2013-03-20 02:57:00,
2013-03-19 19:02:00,25.5,3.9,29.50,NNE,23,11.8,15.4,39,0.00,,,0.00,WUHU216HW,2013-03-20 03:02:00,
2013-03-19 19:07:00,25.5,4.5,29.49,North,0,3.3,11.8,40,0.00,,,0.00,WUHU216HW,2013-03-20 03:07:00,
2013-03-19 19:12:00,25.3,4.4,29.49,NNE,23,3.8,10.9,40,0.00,,,0.00,WUHU216HW,2013-03-20 03:12:00,
2013-03-19 19:17:00,25.1,4.2,29.49,North,0,6.0,10.9,40,0.00,,,0.00,WUHU216HW,2013-03-20 03:17:00,
2013-03-19 19:22:00,24.9,4.0,29.50,NNE,23,5.5,15.8,40,0.00,,,0.00,WUHU216HW,2013-03-20 03:22:00,
2013-03-19 19:27:00,24.9,4.0,29.50,North,0,0.0,15.8,40,0.00,,,0.00,WUHU216HW,2013-03-20 03:27:00,
2013-03-19 19:32:00,24.6,3.7,29.50,NNW,338,0.0,5.5,40,0.00,,,0.00,WUHU216HW,2013-03-20 03:32:00,
2013-03-19 19:37:00,24.4,4.0,29.50,NNE,23,0.0,6.0,41,0.00,,,0.00,WUHU216HW,2013-03-20 03:37:00,
2013-03-19 19:42:00,24.2,3.9,29.50,NW,315,0.0,6.0,41,0.00,,,0.00,WUHU216HW,2013-03-20 03:42:00,
2013-03-19 19:47:00,24.0,3.7,29.50,North,0,0.0,0.0,41,0.00,,,0.00,WUHU216HW,2013-03-20 03:47:00,
2013-03-19 19:52:00,23.9,4.0,29.50,North,0,4.0,4.0,42,0.00,,,0.00,WUHU216HW,2013-03-20 03:52:00,
2013-03-19 19:57:00,23.7,3.9,29.50,NNW,338,0.0,4.0,42,0.00,,,0.00,WUHU216HW,2013-03-20 03:57:00,
2013-03-19 20:00:00,23.5,3.7,29.50,North,0,0.0,4.0,42,0.00,,,0.00,WUHU216HW,2013-03-20 04:00:00,
2013-03-19 20:05:00,23.1,3.4,29.50,North,0,1.7,4.4,42,0.00,,,0.00,WUHU216HW,2013-03-20 04:05:00,
2013-03-19 20:10:00,22.8,3.5,29.50,NNE,23,0.0,4.4,43,0.00,,,0.00,WUHU216HW,2013-03-20 04:10:00,
2013-03-19 20:15:00,22.6,3.4,29.50,NW,315,0.0,7.1,43,0.00,,,0.00,WUHU216HW,2013-03-20 04:15:00,
2013-03-19 20:20:00,22.4,3.7,29.50,North,0,3.5,7.1,44,0.00,,,0.00,WUHU216HW,2013-03-20 04:20:00,
2013-03-19 20:25:00,22.2,3.5,29.50,NNW,338,0.0,3.5,44,0.00,,,0.00,WUHU216HW,2013-03-20 04:25:00,
2013-03-19 20:30:00,21.9,3.2,29.50,North,0,0.0,6.7,44,0.00,,,0.00,WUHU216HW,2013-03-20 04:30:00,
2013-03-19 20:35:00,21.9,3.2,29.50,North,0,0.0,6.7,44,0.00,,,0.00,WUHU216HW,2013-03-20 04:35:00,
2013-03-19 20:40:00,21.7,3.0,29.50,NNW,338,0.0,0.0,44,0.00,,,0.00,WUHU216HW,2013-03-20 04:40:00,
2013-03-19 20:45:00,21.3,3.1,29.51,NNW,338,0.0,0.0,45,0.00,,,0.00,WUHU216HW,2013-03-20 04:45:00,
2013-03-19 20:50:00,21.0,2.8,29.51,WNW,293,0.0,0.0,45,0.00,,,0.00,WUHU216HW,2013-03-20 04:50:00,
2013-03-19 20:56:00,20.8,2.6,29.51,North,0,0.0,0.0,45,0.00,,,0.00,WUHU216HW,2013-03-20 04:56:00,
2013-03-19 21:01:00,20.4,2.3,29.51,NNW,338,0.0,0.0,45,0.00,,,0.00,WUHU216HW,2013-03-20 05:01:00,
2013-03-19 21:06:00,20.3,2.0,29.51,NW,315,0.0,0.0,45,0.00,,,0.00,WUHU216HW,2013-03-20 05:06:00,
2013-03-19 21:11:00,19.5,1.5,29.51,NW,315,0.0,0.0,45,0.00,,,0.00,WUHU216HW,2013-03-20 05:11:00,
2013-03-19 21:16:00,19.2,1.2,29.51,NW,315,0.0,0.0,45,0.00,,,0.00,WUHU216HW,2013-03-20 05:16:00,
2013-03-19 21:21:00,18.6,1.2,29.51,NNW,338,0.0,2.2,46,0.00,,,0.00,WUHU216HW,2013-03-20 05:21:00,
2013-03-19 21:26:00,18.6,1.6,29.51,North,0,0.0,2.2,47,0.00,,,0.00,WUHU216HW,2013-03-20 05:26:00,
2013-03-19 21:32:00,18.5,1.5,29.51,NNW,338,0.0,0.0,47,0.00,,,0.00,WUHU216HW,2013-03-20 05:32:00,
2013-03-19 21:37:00,18.5,1.5,29.51,NW,315,0.0,0.0,47,0.00,,,0.00,WUHU216HW,2013-03-20 05:37:00,
2013-03-19 21:42:00,18.5,1.5,29.51,NW,315,0.0,0.0,47,0.00,,,0.00,WUHU216HW,2013-03-20 05:42:00,
2013-03-19 21:47:00,18.3,1.3,29.51,NNE,23,0.0,0.0,47,0.00,,,0.00,WUHU216HW,2013-03-20 05:47:00,
2013-03-19 21:52:00,18.3,1.8,29.51,NW,315,0.0,0.0,48,0.00,,,0.00,WUHU216HW,2013-03-20 05:52:00,
2013-03-19 21:57:00,17.7,1.3,29.51,NW,315,0.0,0.0,48,0.00,,,0.00,WUHU216HW,2013-03-20 05:57:00,
2013-03-19 22:02:00,16.7,0.3,29.51,NW,315,0.0,0.0,48,0.00,,,0.00,WUHU216HW,2013-03-20 06:02:00,
2013-03-19 22:07:00,16.1,-0.1,29.51,NW,315,0.0,0.0,48,0.00,,,0.00,WUHU216HW,2013-03-20 06:07:00,
2013-03-19 22:12:00,15.6,-0.6,29.51,NW,315,0.0,0.0,48,0.00,,,0.00,WUHU216HW,2013-03-20 06:12:00,
2013-03-19 22:17:00,15.2,-0.5,29.51,NW,315,0.0,0.0,49,0.00,,,0.00,WUHU216HW,2013-03-20 06:17:00,
2013-03-19 22:22:00,14.5,-0.7,29.51,North,0,0.0,0.0,50,0.00,,,0.00,WUHU216HW,2013-03-20 06:22:00,
2013-03-19 22:27:00,14.1,-0.7,29.52,NNW,338,0.0,0.0,51,0.00,,,0.00,WUHU216HW,2013-03-20 06:27:00,
2013-03-19 22:32:00,13.6,-1.2,29.52,North,0,0.0,0.0,51,0.00,,,0.00,WUHU216HW,2013-03-20 06:32:00,
2013-03-19 22:37:00,13.8,-1.0,29.52,NW,315,0.0,0.0,51,0.00,,,0.00,WUHU216HW,2013-03-20 06:37:00,
2013-03-19 22:42:00,14.3,-0.1,29.52,North,0,0.0,0.0,52,0.00,,,0.00,WUHU216HW,2013-03-20 06:42:00,
2013-03-19 22:47:00,15.0,0.5,29.52,North,0,0.0,0.0,52,0.00,,,0.00,WUHU216HW,2013-03-20 06:47:00,
2013-03-19 22:52:00,15.4,0.5,29.52,NNW,338,0.0,0.0,51,0.00,,,0.00,WUHU216HW,2013-03-20 06:52:00,
2013-03-19 22:57:00,15.6,0.6,29.52,North,0,0.0,0.0,51,0.00,,,0.00,WUHU216HW,2013-03-20 06:57:00,
2013-03-19 23:02:00,15.8,0.8,29.51,North,0,0.0,0.0,51,0.00,,,0.00,WUHU216HW,2013-03-20 07:02:00,
2013-03-19 23:07:00,15.9,1.0,29.51,North,0,1.5,1.5,51,0.00,,,0.00,WUHU216HW,2013-03-20 07:07:00,
2013-03-19 23:12:00,16.1,1.2,29.51,North,0,0.0,1.5,51,0.00,,,0.00,WUHU216HW,2013-03-20 07:12:00,
2013-03-19 23:17:00,16.3,1.3,29.51,NNW,338,0.0,2.0,51,0.00,,,0.00,WUHU216HW,2013-03-20 07:17:00,
2013-03-19 23:22:00,16.3,1.3,29.51,North,0,1.5,4.9,51,0.00,,,0.00,WUHU216HW,2013-03-20 07:22:00,
2013-03-19 23:27:00,16.3,1.3,29.51,NNW,338,0.0,4.9,51,0.00,,,0.00,WUHU216HW,2013-03-20 07:27:00,
2013-03-19 23:32:00,16.5,1.5,29.51,NW,315,0.0,0.0,51,0.00,,,0.00,WUHU216HW,2013-03-20 07:32:00,
2013-03-19 23:37:00,16.3,1.3,29.51,North,0,0.0,0.0,51,0.00,,,0.00,WUHU216HW,2013-03-20 07:37:00,
2013-03-19 23:42:00,16.1,1.2,29.51,NNW,338,0.0,0.0,51,0.00,,,0.00,WUHU216HW,2013-03-20 07:42:00,
2013-03-19 23:47:00,15.9,1.0,29.51,NNW,338,3.3,3.3,51,0.00,,,0.00,WUHU216HW,2013-03-20 07:47:00,
2013-03-19 23:52:00,15.8,0.8,29.51,NW,315,0.0,3.3,51,0.00,,,0.00,WUHU216HW,2013-03-20 07:52:00,
2013-03-19 23:57:00,15.6,0.6,29.51,NNW,338,3.8,3.8,51,0.00,,,0.00,WUHU216HW,2013-03-20 07:57:00,